UAE516 OMDB-VIDP

Flight info

Callsign UAE516
Flight time 2h 50m
Altitude 41000
Route IVURO M677 LALDO B505 NADSO B524 ALPOR G216 KC/N0477F390 Z306 RK G202 MERUN G452 LKA
Aircraft A343/H-SDE2E3FGHIJ4J5M1RWXY/LB1D1

Departure

Time 2026-04-25 13:29
Airport Dubai International Airport (OMDB)

Arrival

Time 2026-04-25 16:19
Airport Indira Gandhi International Airport (VIDP)
Time Latitude Longitude Altitude Speed Heading
2026-04-25 12:47 25.25237 55.35644 29 ft 0 kts 211°
2026-04-25 13:15 25.25245 55.35649 29 ft 4 kts 211°
2026-04-25 13:15 25.25268 55.35665 29 ft 4 kts 211°
2026-04-25 13:16 25.25291 55.35680 31 ft 3 kts 211°
2026-04-25 13:16 25.25309 55.35694 31 ft 4 kts 234°
2026-04-25 13:16 25.25316 55.35719 31 ft 4 kts 283°
2026-04-25 13:16 25.25307 55.35744 31 ft 4 kts 302°
2026-04-25 13:17 25.25293 55.35768 31 ft 2 kts 302°
2026-04-25 13:17 25.25293 55.35769 31 ft 0 kts 302°
2026-04-25 13:20 25.25296 55.35763 31 ft 4 kts 302°
2026-04-25 13:20 25.25322 55.35718 31 ft 11 kts 302°
2026-04-25 13:20 25.25375 55.35623 30 ft 17 kts 302°
2026-04-25 13:20 25.25437 55.35512 29 ft 18 kts 302°
2026-04-25 13:21 25.25508 55.35386 31 ft 19 kts 302°
2026-04-25 13:21 25.25580 55.35258 29 ft 20 kts 302°
2026-04-25 13:21 25.25642 55.35158 28 ft 10 kts 319°
2026-04-25 13:21 25.25700 55.35164 28 ft 10 kts 30°
2026-04-25 13:22 25.25774 55.35216 29 ft 15 kts 32°
2026-04-25 13:22 25.25869 55.35281 30 ft 17 kts 32°
2026-04-25 13:22 25.25954 55.35341 29 ft 10 kts 37°
2026-04-25 13:23 25.26005 55.35495 28 ft 18 kts 99°
2026-04-25 13:23 25.25950 55.35625 28 ft 20 kts 121°
2026-04-25 13:23 25.25872 55.35764 27 ft 23 kts 122°
2026-04-25 13:23 25.25786 55.35915 26 ft 25 kts 122°
2026-04-25 13:24 25.25692 55.36083 26 ft 26 kts 122°
2026-04-25 13:24 25.25596 55.36254 27 ft 27 kts 121°
2026-04-25 13:24 25.25491 55.36441 26 ft 30 kts 122°
2026-04-25 13:24 25.25379 55.36638 31 ft 29 kts 121°
2026-04-25 13:25 25.25276 55.36825 30 ft 27 kts 121°
2026-04-25 13:25 25.25178 55.36998 26 ft 26 kts 122°
2026-04-25 13:25 25.25081 55.37169 27 ft 27 kts 122°
2026-04-25 13:25 25.24982 55.37344 28 ft 27 kts 122°
2026-04-25 13:26 25.24894 55.37499 27 ft 18 kts 121°
2026-04-25 13:26 25.24826 55.37622 27 ft 19 kts 121°
2026-04-25 13:26 25.24750 55.37758 27 ft 22 kts 122°
2026-04-25 13:26 25.24685 55.37875 26 ft 17 kts 121°
2026-04-25 13:27 25.24660 55.37939 27 ft 7 kts 83°
2026-04-25 13:27 25.24704 55.37985 27 ft 11 kts 31°
2026-04-25 13:27 25.24773 55.38029 29 ft 10 kts 26°
2026-04-25 13:27 25.24818 55.38005 29 ft 9 kts 303°
2026-04-25 13:28 25.24880 55.37895 30 ft 33 kts 301°
2026-04-25 13:28 25.25008 55.37663 30 ft 74 kts 301°
2026-04-25 13:28 25.25542 55.36702 28 ft 142 kts 301°
2026-04-25 13:28 25.26119 55.35675 301 ft 162 kts 302°
2026-04-25 13:29 25.26690 55.34633 929 ft 157 kts 301°
2026-04-25 13:29 25.27252 55.33544 1346 ft 174 kts 301°
2026-04-25 13:29 25.27938 55.32316 1634 ft 202 kts 303°
2026-04-25 13:30 25.29871 55.29825 2945 ft 224 kts 333°
2026-04-25 13:30 25.31392 55.29441 3598 ft 229 kts 357°
2026-04-25 13:30 25.33001 55.29457 4010 ft 232 kts
2026-04-25 13:31 25.36332 55.29945 4969 ft 263 kts 21°
2026-04-25 13:31 25.37817 55.31191 5599 ft 278 kts 52°
2026-04-25 13:31 25.38506 55.33200 6345 ft 287 kts 86°
2026-04-25 13:31 25.38442 55.35418 7139 ft 291 kts 96°
2026-04-25 13:32 25.38240 55.37654 7973 ft 294 kts 96°
2026-04-25 13:32 25.38043 55.39922 8837 ft 298 kts 96°
2026-04-25 13:32 25.37863 55.42219 9712 ft 301 kts 95°
2026-04-25 13:32 25.37692 55.44548 10433 ft 309 kts 95°
2026-04-25 13:33 25.37519 55.46992 10815 ft 329 kts 95°
2026-04-25 13:33 25.37339 55.49592 11134 ft 348 kts 95°
2026-04-25 13:33 25.37152 55.52335 11446 ft 366 kts 95°
2026-04-25 13:33 25.36958 55.55198 11831 ft 380 kts 95°
2026-04-25 13:34 25.36760 55.58137 12383 ft 387 kts 95°
2026-04-25 13:34 25.36559 55.61114 13055 ft 390 kts 96°
2026-04-25 13:34 25.36355 55.64122 13738 ft 394 kts 96°
2026-04-25 13:34 25.36148 55.67158 14318 ft 398 kts 96°
2026-04-25 13:35 25.35938 55.70233 14889 ft 403 kts 96°
2026-04-25 13:35 25.35725 55.73336 15479 ft 408 kts 96°
2026-04-25 13:35 25.35509 55.76481 16055 ft 413 kts 96°
2026-04-25 13:35 25.35290 55.79662 16658 ft 417 kts 96°
2026-04-25 13:36 25.35069 55.82873 17240 ft 422 kts 96°
2026-04-25 13:36 25.34841 55.86135 17774 ft 429 kts 96°
2026-04-25 13:36 25.34612 55.89428 18392 ft 431 kts 96°
2026-04-25 13:36 25.34383 55.92711 18917 ft 436 kts 96°
2026-04-25 13:37 25.34147 55.96069 19421 ft 440 kts 96°
2026-04-25 13:37 25.33910 55.99448 19984 ft 443 kts 96°
2026-04-25 13:37 25.33670 56.02857 20495 ft 447 kts 96°
2026-04-25 13:37 25.33426 56.06297 21023 ft 450 kts 96°
2026-04-25 13:38 25.33180 56.09757 21555 ft 454 kts 96°
2026-04-25 13:38 25.32932 56.13242 22067 ft 457 kts 96°
2026-04-25 13:38 25.32681 56.16759 22562 ft 461 kts 96°
2026-04-25 13:38 25.32408 56.20303 23079 ft 464 kts 97°
2026-04-25 13:39 25.32111 56.23868 23527 ft 468 kts 97°
2026-04-25 13:39 25.31803 56.27457 23925 ft 471 kts 97°
2026-04-25 13:39 25.31491 56.31081 24332 ft 475 kts 97°
2026-04-25 13:39 25.31179 56.34722 24756 ft 478 kts 97°
2026-04-25 13:40 25.30866 56.38394 25139 ft 481 kts 97°
2026-04-25 13:40 25.30579 56.42092 25527 ft 485 kts 95°
2026-04-25 13:40 25.30420 56.45825 25911 ft 488 kts 93°
2026-04-25 13:40 25.30335 56.49587 26285 ft 492 kts 92°
2026-04-25 13:41 25.30273 56.53377 26651 ft 495 kts 92°
2026-04-25 13:41 25.30121 56.57183 27011 ft 497 kts 97°
2026-04-25 13:41 25.29510 56.60939 27402 ft 497 kts 107°
2026-04-25 13:41 25.28429 56.64567 27745 ft 499 kts 112°
2026-04-25 13:42 25.27178 56.68153 28065 ft 501 kts 114°
2026-04-25 13:42 25.25841 56.71722 28394 ft 504 kts 115°
2026-04-25 13:42 25.24461 56.75295 28729 ft 507 kts 115°
2026-04-25 13:42 25.23067 56.78882 29035 ft 510 kts 115°
2026-04-25 13:43 25.21667 56.82494 29339 ft 513 kts 115°
2026-04-25 13:43 25.20269 56.86125 29655 ft 515 kts 115°
2026-04-25 13:43 25.18871 56.89776 29950 ft 518 kts 115°
2026-04-25 13:43 25.17470 56.93448 30209 ft 520 kts 115°
2026-04-25 13:44 25.16070 56.97125 30571 ft 519 kts 115°
2026-04-25 13:44 25.14691 57.00747 30910 ft 519 kts 114°
2026-04-25 13:44 25.13272 57.04471 31212 ft 520 kts 114°
2026-04-25 13:44 25.11868 57.08150 31526 ft 520 kts 114°
2026-04-25 13:45 25.10463 57.11827 31854 ft 520 kts 114°
2026-04-25 13:45 25.09078 57.15448 32284 ft 518 kts 114°
2026-04-25 13:45 25.07679 57.19100 32642 ft 517 kts 114°
2026-04-25 13:45 25.06279 57.22754 32943 ft 517 kts 114°
2026-04-25 13:46 25.04878 57.26406 33259 ft 517 kts 114°
2026-04-25 13:46 25.03478 57.30051 33569 ft 517 kts 114°
2026-04-25 13:46 25.02074 57.33702 33869 ft 517 kts 114°
2026-04-25 13:46 25.00670 57.37352 34120 ft 517 kts 114°
2026-04-25 13:47 24.99267 57.40996 34445 ft 514 kts 114°
2026-04-25 13:47 24.97870 57.44623 34695 ft 515 kts 114°
2026-04-25 13:47 24.96466 57.48264 34842 ft 517 kts 114°
2026-04-25 13:47 24.95057 57.51914 35060 ft 518 kts 114°
2026-04-25 13:48 24.93645 57.55569 35282 ft 519 kts 114°
2026-04-25 13:48 24.92231 57.59227 35494 ft 519 kts 113°
2026-04-25 13:48 24.90816 57.62884 35695 ft 520 kts 113°
2026-04-25 13:48 24.89396 57.66549 35938 ft 520 kts 113°
2026-04-25 13:49 24.87979 57.70205 36271 ft 518 kts 113°
2026-04-25 13:49 24.86565 57.73852 36458 ft 518 kts 113°
2026-04-25 13:49 24.85146 57.77507 36639 ft 520 kts 113°
2026-04-25 13:49 24.83773 57.81191 36809 ft 521 kts 109°
2026-04-25 13:50 24.82770 57.85013 37011 ft 520 kts 103°
2026-04-25 13:50 24.81908 57.88879 37251 ft 520 kts 102°
2026-04-25 13:50 24.81099 57.92751 37450 ft 520 kts 101°
2026-04-25 13:50 24.80316 57.96633 37734 ft 518 kts 101°
2026-04-25 13:51 24.79542 58.00506 37967 ft 518 kts 101°
2026-04-25 13:51 24.78768 58.04379 38142 ft 519 kts 101°
2026-04-25 13:51 24.77987 58.08258 38334 ft 519 kts 101°
2026-04-25 13:51 24.77202 58.12133 38515 ft 520 kts 101°
2026-04-25 13:52 24.76410 58.16018 38672 ft 520 kts 101°
2026-04-25 13:52 24.75615 58.19898 38817 ft 521 kts 101°
2026-04-25 13:52 24.74818 58.23785 38854 ft 521 kts 101°
2026-04-25 13:53 24.73228 58.31504 38844 ft 515 kts 101°
2026-04-25 13:53 24.71648 58.39167 38846 ft 514 kts 101°
2026-04-25 13:54 24.70332 58.45539 38841 ft 514 kts 101°
2026-04-25 13:54 24.68746 58.53196 38843 ft 513 kts 101°
2026-04-25 13:55 24.67161 58.60826 38847 ft 512 kts 101°
2026-04-25 13:55 24.65574 58.68450 38851 ft 512 kts 101°
2026-04-25 13:56 24.63983 58.76071 38841 ft 512 kts 101°
2026-04-25 13:56 24.62387 58.83691 38845 ft 512 kts 101°
2026-04-25 13:57 24.60789 58.91308 38843 ft 512 kts 101°
2026-04-25 13:57 24.59185 58.98926 38847 ft 512 kts 101°
2026-04-25 13:58 24.57578 59.06540 38839 ft 511 kts 101°
2026-04-25 13:58 24.55984 59.14071 38851 ft 509 kts 101°
2026-04-25 13:59 24.54378 59.21647 38846 ft 509 kts 101°
2026-04-25 13:59 24.52770 59.29217 38843 ft 509 kts 101°
2026-04-25 14:00 24.51417 59.35556 38850 ft 509 kts 102°
2026-04-25 14:00 24.49537 59.44329 38853 ft 508 kts 102°
2026-04-25 14:01 24.47917 59.51879 38850 ft 508 kts 102°
2026-04-25 14:01 24.46295 59.59423 38855 ft 508 kts 102°
2026-04-25 14:02 24.44670 59.66960 38858 ft 507 kts 102°
2026-04-25 14:02 24.43047 59.74470 38849 ft 505 kts 102°
2026-04-25 14:03 24.41422 59.81968 38853 ft 505 kts 102°
2026-04-25 14:03 24.39793 59.89469 38850 ft 505 kts 102°
2026-04-25 14:04 24.38162 59.96956 38859 ft 504 kts 102°
2026-04-25 14:04 24.36530 60.04431 38856 ft 504 kts 102°
2026-04-25 14:05 24.34897 60.11903 38854 ft 504 kts 102°
2026-04-25 14:05 24.33262 60.19371 38857 ft 504 kts 102°
2026-04-25 14:06 24.31620 60.26828 38851 ft 503 kts 102°
2026-04-25 14:06 24.29977 60.34281 38856 ft 502 kts 102°
2026-04-25 14:07 24.28335 60.41713 38855 ft 501 kts 102°
2026-04-25 14:07 24.26691 60.49138 38854 ft 501 kts 103°
2026-04-25 14:08 24.25044 60.56558 38860 ft 501 kts 103°
2026-04-25 14:08 24.23396 60.63968 38853 ft 501 kts 103°
2026-04-25 14:09 24.21743 60.71379 38854 ft 501 kts 103°
2026-04-25 14:09 24.20090 60.78782 38857 ft 500 kts 103°
2026-04-25 14:10 24.18437 60.86179 38857 ft 499 kts 103°
2026-04-25 14:10 24.16782 60.93565 38857 ft 499 kts 103°
2026-04-25 14:11 24.15126 61.00940 38857 ft 498 kts 103°
2026-04-25 14:11 24.13469 61.08300 38859 ft 497 kts 103°
2026-04-25 14:12 24.11826 61.15582 38857 ft 496 kts 103°
2026-04-25 14:12 24.10169 61.22907 38854 ft 495 kts 103°
2026-04-25 14:13 24.08586 61.30241 38853 ft 495 kts 98°
2026-04-25 14:13 24.08494 61.37720 38858 ft 491 kts 82°
2026-04-25 14:14 24.09455 61.45115 38856 ft 491 kts 79°
2026-04-25 14:14 24.10575 61.52482 38856 ft 491 kts 79°
2026-04-25 14:15 24.11690 61.59859 38854 ft 491 kts 79°
2026-04-25 14:15 24.12776 61.67238 38856 ft 491 kts 79°
2026-04-25 14:16 24.13845 61.74618 38858 ft 491 kts 79°
2026-04-25 14:16 24.14910 61.82004 38856 ft 491 kts 80°
2026-04-25 14:17 24.15923 61.89398 38855 ft 491 kts 80°
2026-04-25 14:17 24.16911 61.96795 38853 ft 491 kts 80°
2026-04-25 14:18 24.17903 62.04193 38856 ft 491 kts 80°
2026-04-25 14:18 24.18898 62.11583 38856 ft 491 kts 80°
2026-04-25 14:19 24.19892 62.18978 38853 ft 491 kts 80°
2026-04-25 14:19 24.20881 62.26372 38853 ft 491 kts 80°
2026-04-25 14:20 24.21868 62.33771 38856 ft 491 kts 80°
2026-04-25 14:20 24.22843 62.41117 38853 ft 491 kts 80°
2026-04-25 14:21 24.23822 62.48516 38853 ft 491 kts 80°
2026-04-25 14:21 24.24796 62.55914 38850 ft 491 kts 80°
2026-04-25 14:22 24.25768 62.63317 38854 ft 491 kts 80°
2026-04-25 14:22 24.26736 62.70723 38850 ft 491 kts 80°
2026-04-25 14:23 24.27702 62.78133 38850 ft 491 kts 80°
2026-04-25 14:23 24.28663 62.85545 38853 ft 491 kts 80°
2026-04-25 14:24 24.29623 62.92972 38855 ft 492 kts 80°
2026-04-25 14:24 24.30580 63.00402 38847 ft 492 kts 80°
2026-04-25 14:25 24.31532 63.07832 38846 ft 492 kts 81°
2026-04-25 14:25 24.32482 63.15266 38845 ft 492 kts 81°
2026-04-25 14:26 24.33427 63.22695 38852 ft 491 kts 81°
2026-04-25 14:26 24.34367 63.30112 38850 ft 491 kts 81°
2026-04-25 14:27 24.35297 63.37479 38847 ft 491 kts 81°
2026-04-25 14:27 24.36229 63.44896 38852 ft 491 kts 81°
2026-04-25 14:28 24.37157 63.52309 38850 ft 490 kts 81°
2026-04-25 14:28 24.38081 63.59718 38848 ft 490 kts 81°
2026-04-25 14:29 24.39001 63.67127 38845 ft 490 kts 81°
2026-04-25 14:29 24.39918 63.74540 38847 ft 490 kts 81°
2026-04-25 14:30 24.40828 63.81933 38844 ft 487 kts 81°
2026-04-25 14:30 24.42181 63.92968 38847 ft 486 kts 81°
2026-04-25 14:31 24.43078 64.00323 38842 ft 486 kts 81°
2026-04-25 14:31 24.43971 64.07680 38844 ft 486 kts 81°
2026-04-25 14:32 24.44859 64.15024 38845 ft 485 kts 81°
2026-04-25 14:32 24.45743 64.22359 38842 ft 485 kts 81°
2026-04-25 14:33 24.46623 64.29701 38842 ft 485 kts 81°
2026-04-25 14:33 24.47500 64.37040 38844 ft 485 kts 81°
2026-04-25 14:34 24.48371 64.44369 38841 ft 483 kts 81°
2026-04-25 14:34 24.49238 64.51685 38838 ft 483 kts 81°
2026-04-25 14:35 24.50100 64.58997 38841 ft 483 kts 81°
2026-04-25 14:35 24.50959 64.66311 38839 ft 483 kts 81°
2026-04-25 14:36 24.51815 64.73626 38840 ft 483 kts 81°
2026-04-25 14:36 24.52667 64.80948 38839 ft 483 kts 81°
2026-04-25 14:37 24.53640 64.88245 38839 ft 483 kts 78°
2026-04-25 14:37 24.54935 64.95472 38839 ft 482 kts 77°
2026-04-25 14:38 24.56245 65.02697 38836 ft 482 kts 77°
2026-04-25 14:38 24.57498 65.09916 38836 ft 481 kts 78°
2026-04-25 14:39 24.58720 65.17140 38838 ft 481 kts 78°
2026-04-25 14:39 24.59935 65.24369 38836 ft 481 kts 78°
2026-04-25 14:40 24.61147 65.31598 38842 ft 481 kts 78°
2026-04-25 14:40 24.62349 65.38773 38832 ft 481 kts 78°
2026-04-25 14:41 24.63538 65.46003 38837 ft 481 kts 78°
2026-04-25 14:41 24.64718 65.53236 38837 ft 481 kts 78°
2026-04-25 14:42 24.65507 65.58074 38833 ft 481 kts 78°
2026-04-25 14:42 24.67075 65.67701 38838 ft 481 kts 78°
2026-04-25 14:43 24.68061 65.73769 38835 ft 481 kts 78°
2026-04-25 14:43 24.69235 65.81009 38827 ft 481 kts 78°
2026-04-25 14:44 24.70404 65.88251 38833 ft 481 kts 78°
2026-04-25 14:44 24.71571 65.95496 38835 ft 481 kts 78°
2026-04-25 14:45 24.72726 66.02696 38826 ft 482 kts 78°
2026-04-25 14:45 24.73887 66.09950 38835 ft 482 kts 78°
2026-04-25 14:46 24.75044 66.17205 38834 ft 482 kts 78°
2026-04-25 14:46 24.76198 66.24467 38833 ft 482 kts 78°
2026-04-25 14:47 24.77160 66.30539 38825 ft 481 kts 78°
2026-04-25 14:47 24.78489 66.38954 38828 ft 480 kts 78°
2026-04-25 14:48 24.79629 66.46193 38833 ft 480 kts 78°
2026-04-25 14:48 24.80765 66.53429 38826 ft 480 kts 78°
2026-04-25 14:49 24.81897 66.60668 38827 ft 480 kts 78°
2026-04-25 14:49 24.83028 66.67909 38827 ft 480 kts 78°
2026-04-25 14:50 24.84203 66.75138 38820 ft 480 kts 77°
2026-04-25 14:50 24.85397 66.82368 38824 ft 480 kts 77°
2026-04-25 14:51 24.86582 66.89598 38828 ft 480 kts 77°
2026-04-25 14:51 24.87759 66.96835 38827 ft 480 kts 77°
2026-04-25 14:52 24.88932 67.04080 38830 ft 480 kts 77°
2026-04-25 14:52 24.89909 67.10094 38829 ft 480 kts 76°
2026-04-25 14:53 24.91163 67.14793 38834 ft 476 kts 65°
2026-04-25 14:53 24.92643 67.18032 38832 ft 472 kts 55°
2026-04-25 14:53 24.96898 67.23431 38821 ft 466 kts 39°
2026-04-25 14:54 25.01824 67.28076 38837 ft 466 kts 37°
2026-04-25 14:54 25.06842 67.32609 38817 ft 467 kts 37°
2026-04-25 14:55 25.11831 67.37147 38811 ft 469 kts 37°
2026-04-25 14:55 25.16846 67.41759 38818 ft 469 kts 37°
2026-04-25 14:56 25.21849 67.46382 38807 ft 469 kts 37°
2026-04-25 14:56 25.26862 67.51000 38807 ft 469 kts 37°
2026-04-25 14:57 25.31898 67.55595 38971 ft 470 kts 37°
2026-04-25 14:57 25.34423 67.57899 39098 ft 472 kts 37°
2026-04-25 14:57 25.36955 67.60212 39237 ft 472 kts 37°
2026-04-25 14:58 25.39489 67.62530 39379 ft 473 kts 37°
2026-04-25 14:58 25.42032 67.64858 39428 ft 476 kts 37°
2026-04-25 14:58 25.44586 67.67199 39549 ft 478 kts 37°
2026-04-25 14:58 25.47146 67.69548 39683 ft 478 kts 37°
2026-04-25 14:59 25.49701 67.71895 39828 ft 478 kts 37°
2026-04-25 14:59 25.52263 67.74249 39968 ft 479 kts 37°
2026-04-25 14:59 25.54827 67.76606 40123 ft 479 kts 37°
2026-04-25 14:59 25.57394 67.78967 40248 ft 480 kts 37°
2026-04-25 15:00 25.59962 67.81330 40379 ft 480 kts 37°
2026-04-25 15:00 25.62533 67.83697 40496 ft 481 kts 37°
2026-04-25 15:00 25.65107 67.86069 40631 ft 481 kts 37°
2026-04-25 15:00 25.67682 67.88441 40748 ft 482 kts 37°
2026-04-25 15:01 25.72862 67.93219 40781 ft 484 kts 37°
2026-04-25 15:01 25.78031 67.97994 40761 ft 484 kts 37°
2026-04-25 15:02 25.83207 68.02782 40777 ft 484 kts 37°
2026-04-25 15:02 25.88383 68.07573 40758 ft 485 kts 37°
2026-04-25 15:03 25.93559 68.12371 40756 ft 485 kts 37°
2026-04-25 15:03 25.98736 68.17176 40772 ft 484 kts 37°
2026-04-25 15:04 26.03906 68.21980 40747 ft 484 kts 37°
2026-04-25 15:04 26.09063 68.26778 40754 ft 484 kts 36°
2026-04-25 15:05 26.14230 68.31589 40752 ft 484 kts 36°
2026-04-25 15:06 26.21977 68.38815 40752 ft 485 kts 36°
2026-04-25 15:06 26.27227 68.43427 40749 ft 483 kts 33°
2026-04-25 15:07 26.32613 68.47907 40752 ft 483 kts 33°
2026-04-25 15:07 26.37986 68.52406 40752 ft 483 kts 33°
2026-04-25 15:08 26.43340 68.56947 40755 ft 484 kts 33°
2026-04-25 15:08 26.48689 68.61510 40755 ft 485 kts 33°
2026-04-25 15:09 26.54045 68.66086 40756 ft 485 kts 33°
2026-04-25 15:09 26.62076 68.72958 40761 ft 485 kts 34°
2026-04-25 15:10 26.67438 68.77529 40762 ft 485 kts 33°
2026-04-25 15:11 26.75489 68.84378 40757 ft 485 kts 33°
2026-04-25 15:11 26.80851 68.88951 40763 ft 483 kts 34°
2026-04-25 15:12 26.88846 68.95789 40761 ft 482 kts 34°
2026-04-25 15:12 26.92374 68.98810 40757 ft 482 kts 34°
2026-04-25 15:13 27.02122 69.07168 40765 ft 482 kts 34°
2026-04-25 15:14 27.07443 69.11739 40765 ft 482 kts 34°
2026-04-25 15:14 27.12762 69.16315 40769 ft 482 kts 34°
2026-04-25 15:15 27.18084 69.20898 40776 ft 482 kts 34°
2026-04-25 15:15 27.23411 69.25491 40769 ft 483 kts 34°
2026-04-25 15:16 27.28737 69.30097 40769 ft 483 kts 34°
2026-04-25 15:16 27.36655 69.37151 40777 ft 484 kts 35°
2026-04-25 15:17 27.44565 69.44232 40774 ft 485 kts 35°
2026-04-25 15:18 27.49850 69.48952 40776 ft 485 kts 35°
2026-04-25 15:18 27.57748 69.56010 40777 ft 485 kts 35°
2026-04-25 15:19 27.61283 69.59174 40777 ft 485 kts 35°
2026-04-25 15:19 27.68319 69.65481 40776 ft 485 kts 35°
2026-04-25 15:20 27.73605 69.70226 40783 ft 486 kts 35°
2026-04-25 15:20 27.78902 69.74988 40783 ft 487 kts 35°
2026-04-25 15:21 27.84204 69.79760 40788 ft 487 kts 35°
2026-04-25 15:21 27.89506 69.84538 40788 ft 487 kts 35°
2026-04-25 15:22 27.94802 69.89318 40786 ft 487 kts 35°
2026-04-25 15:22 28.00100 69.94105 40790 ft 487 kts 35°
2026-04-25 15:23 28.05397 69.98897 40791 ft 488 kts 35°
2026-04-25 15:23 28.10697 70.03699 40788 ft 488 kts 35°
2026-04-25 15:24 28.16004 70.08513 40791 ft 488 kts 35°
2026-04-25 15:24 28.19515 70.11702 40790 ft 489 kts 35°
2026-04-25 15:25 28.26573 70.18119 40790 ft 489 kts 35°
2026-04-25 15:25 28.31757 70.23121 40791 ft 492 kts 43°
2026-04-25 15:26 28.35645 70.29528 40787 ft 498 kts 64°
2026-04-25 15:26 28.36781 70.33249 40796 ft 501 kts 76°
2026-04-25 15:26 28.37342 70.37155 40791 ft 503 kts 83°
2026-04-25 15:27 28.37931 70.45090 40788 ft 505 kts 85°
2026-04-25 15:28 28.38580 70.57013 40796 ft 504 kts 86°
2026-04-25 15:28 28.39050 70.64968 40796 ft 505 kts 85°
2026-04-25 15:29 28.39541 70.72926 40796 ft 505 kts 85°
2026-04-25 15:29 28.40032 70.80887 40799 ft 505 kts 85°
2026-04-25 15:30 28.40518 70.88850 40800 ft 505 kts 85°
2026-04-25 15:30 28.40997 70.96818 40799 ft 506 kts 85°
2026-04-25 15:31 28.41391 71.03439 40801 ft 506 kts 85°
2026-04-25 15:31 28.41861 71.11410 40801 ft 506 kts 85°
2026-04-25 15:32 28.42326 71.19378 40804 ft 506 kts 85°
2026-04-25 15:32 28.42788 71.27348 40804 ft 506 kts 85°
2026-04-25 15:33 28.43471 71.39305 40804 ft 506 kts 85°
2026-04-25 15:33 28.43922 71.47276 40804 ft 506 kts 85°
2026-04-25 15:34 28.44368 71.55249 40805 ft 506 kts 86°
2026-04-25 15:34 28.44736 71.61879 40807 ft 506 kts 85°
2026-04-25 15:35 28.45462 71.75156 40807 ft 507 kts 85°
2026-04-25 15:36 28.46106 71.87144 40807 ft 507 kts 85°
2026-04-25 15:36 28.46529 71.95138 40808 ft 508 kts 86°
2026-04-25 15:37 28.46949 72.03157 40810 ft 509 kts 86°
2026-04-25 15:37 28.47135 72.11196 40810 ft 510 kts 95°
2026-04-25 15:38 28.46226 72.19179 40813 ft 509 kts 98°
2026-04-25 15:38 28.45171 72.27140 40813 ft 510 kts 99°
2026-04-25 15:39 28.44094 72.35100 40815 ft 510 kts 99°
2026-04-25 15:39 28.43007 72.43063 40818 ft 510 kts 99°
2026-04-25 15:40 28.42100 72.49677 40818 ft 510 kts 99°
2026-04-25 15:40 28.40818 72.58978 40818 ft 510 kts 99°
2026-04-25 15:41 28.39716 72.66931 40814 ft 509 kts 99°
2026-04-25 15:41 28.38612 72.74868 40818 ft 509 kts 99°
2026-04-25 15:42 28.37503 72.82800 40820 ft 509 kts 99°
2026-04-25 15:42 28.36391 72.90728 40823 ft 508 kts 99°
2026-04-25 15:43 28.35273 72.98659 40824 ft 509 kts 99°
2026-04-25 15:43 28.34150 73.06591 40824 ft 509 kts 99°
2026-04-25 15:44 28.33029 73.14472 40826 ft 509 kts 99°
2026-04-25 15:44 28.31897 73.22405 40826 ft 509 kts 99°
2026-04-25 15:45 28.30759 73.30338 40825 ft 509 kts 99°
2026-04-25 15:45 28.29804 73.36978 40826 ft 509 kts 99°
2026-04-25 15:46 28.28474 73.46175 40826 ft 508 kts 100°
2026-04-25 15:46 28.27325 73.54091 40826 ft 508 kts 100°
2026-04-25 15:47 28.26171 73.61998 40823 ft 508 kts 100°
2026-04-25 15:47 28.25055 73.69919 40829 ft 509 kts 96°
2026-04-25 15:48 28.25178 73.77920 40832 ft 508 kts 84°
2026-04-25 15:48 28.25945 73.85890 40831 ft 509 kts 83°
2026-04-25 15:49 28.26746 73.93868 40832 ft 509 kts 83°
2026-04-25 15:49 28.27549 74.01845 40840 ft 509 kts 83°
2026-04-25 15:50 28.28348 74.09822 40834 ft 509 kts 83°
2026-04-25 15:50 28.29138 74.17748 40834 ft 509 kts 83°
2026-04-25 15:51 28.29801 74.24434 40835 ft 509 kts 83°
2026-04-25 15:51 28.30714 74.33708 40834 ft 509 kts 83°
2026-04-25 15:52 28.31495 74.41686 40837 ft 508 kts 83°
2026-04-25 15:52 28.32270 74.49650 40837 ft 508 kts 83°
2026-04-25 15:53 28.33039 74.57611 40837 ft 508 kts 84°
2026-04-25 15:53 28.33804 74.65576 40837 ft 508 kts 84°
2026-04-25 15:54 28.34565 74.73542 40837 ft 508 kts 84°
2026-04-25 15:54 28.35321 74.81513 40837 ft 508 kts 84°
2026-04-25 15:55 28.36071 74.89476 40840 ft 508 kts 84°
2026-04-25 15:55 28.36818 74.97451 40840 ft 508 kts 84°
2026-04-25 15:56 28.37559 75.05416 40840 ft 508 kts 84°
2026-04-25 15:56 28.38297 75.13395 40838 ft 508 kts 84°
2026-04-25 15:57 28.38665 75.17385 40654 ft 508 kts 84°
2026-04-25 15:57 28.39030 75.21364 40405 ft 506 kts 84°
2026-04-25 15:57 28.39393 75.25334 40101 ft 505 kts 84°
2026-04-25 15:57 28.39754 75.29292 39607 ft 504 kts 84°
2026-04-25 15:58 28.40114 75.33257 39040 ft 505 kts 84°
2026-04-25 15:58 28.40473 75.37219 38495 ft 506 kts 84°
2026-04-25 15:58 28.40831 75.41198 37825 ft 506 kts 84°
2026-04-25 15:58 28.41188 75.45169 37198 ft 506 kts 84°
2026-04-25 15:59 28.41544 75.49137 36593 ft 505 kts 84°
2026-04-25 15:59 28.41899 75.53110 35977 ft 505 kts 83°
2026-04-25 15:59 28.42252 75.57077 35325 ft 506 kts 83°
2026-04-25 15:59 28.42606 75.61057 34643 ft 507 kts 83°
2026-04-25 16:00 28.42721 75.62356 34412 ft 508 kts 83°
2026-04-25 16:00 28.43074 75.66355 33671 ft 510 kts 83°
2026-04-25 16:00 28.43668 75.73090 32288 ft 513 kts 83°
2026-04-25 16:00 28.44021 75.77125 31466 ft 514 kts 83°
2026-04-25 16:01 28.44374 75.81169 30661 ft 515 kts 83°
2026-04-25 16:01 28.44727 75.85220 29880 ft 515 kts 83°
2026-04-25 16:01 28.45077 75.89266 28977 ft 514 kts 83°
2026-04-25 16:01 28.45421 75.93254 28131 ft 513 kts 83°
2026-04-25 16:02 28.45772 75.97334 27334 ft 511 kts 83°
2026-04-25 16:02 28.46115 76.01334 26596 ft 507 kts 83°
2026-04-25 16:02 28.46454 76.05306 25901 ft 503 kts 83°
2026-04-25 16:02 28.46789 76.09241 25229 ft 498 kts 83°
2026-04-25 16:03 28.47116 76.13092 24573 ft 494 kts 83°
2026-04-25 16:03 28.47443 76.16958 23905 ft 490 kts 83°
2026-04-25 16:03 28.47767 76.20800 23238 ft 486 kts 84°
2026-04-25 16:03 28.48087 76.24608 22520 ft 481 kts 84°
2026-04-25 16:04 28.48403 76.28375 21857 ft 476 kts 84°
2026-04-25 16:04 28.48713 76.32096 21208 ft 471 kts 84°
2026-04-25 16:04 28.49019 76.35775 20574 ft 465 kts 84°
2026-04-25 16:04 28.49321 76.39419 19931 ft 461 kts 84°
2026-04-25 16:05 28.49619 76.43026 19307 ft 456 kts 84°
2026-04-25 16:05 28.49913 76.46593 18704 ft 451 kts 84°
2026-04-25 16:05 28.50490 76.53623 17420 ft 442 kts 84°
2026-04-25 16:06 28.50772 76.57088 16778 ft 438 kts 83°
2026-04-25 16:06 28.51046 76.60463 16365 ft 416 kts 83°
2026-04-25 16:06 28.51300 76.63624 15891 ft 386 kts 83°
2026-04-25 16:06 28.51535 76.66549 15387 ft 359 kts 83°
2026-04-25 16:07 28.51757 76.69303 14762 ft 342 kts 83°
2026-04-25 16:07 28.51829 76.70203 14552 ft 338 kts 83°
2026-04-25 16:07 28.51686 76.74544 13265 ft 327 kts 100°
2026-04-25 16:07 28.51189 76.77048 12423 ft 322 kts 102°
2026-04-25 16:08 28.50666 76.79468 11591 ft 318 kts 103°
2026-04-25 16:08 28.50141 76.81894 10787 ft 314 kts 102°
2026-04-25 16:08 28.49624 76.84295 9991 ft 311 kts 102°
2026-04-25 16:08 28.49116 76.86667 9150 ft 308 kts 102°
2026-04-25 16:09 28.48609 76.89039 8475 ft 310 kts 102°
2026-04-25 16:09 28.48096 76.91439 8025 ft 313 kts 103°
2026-04-25 16:09 28.47587 76.93818 7764 ft 307 kts 103°
2026-04-25 16:09 28.47087 76.96154 7530 ft 301 kts 103°
2026-04-25 16:10 28.46600 76.98438 7371 ft 293 kts 102°
2026-04-25 16:10 28.46125 77.00665 7200 ft 287 kts 102°
2026-04-25 16:10 28.45659 77.02852 6961 ft 284 kts 102°
2026-04-25 16:10 28.45195 77.05024 6683 ft 282 kts 102°
2026-04-25 16:11 28.44735 77.07183 6440 ft 280 kts 102°
2026-04-25 16:11 28.44277 77.09335 6147 ft 280 kts 102°
2026-04-25 16:11 28.43823 77.11481 5872 ft 279 kts 102°
2026-04-25 16:11 28.43369 77.13622 5585 ft 278 kts 102°
2026-04-25 16:12 28.42919 77.15743 5363 ft 274 kts 103°
2026-04-25 16:12 28.42474 77.17836 5124 ft 272 kts 102°
2026-04-25 16:12 28.42028 77.19904 4977 ft 266 kts 102°
2026-04-25 16:12 28.41885 77.20565 4939 ft 264 kts 102°
2026-04-25 16:13 28.41178 77.23860 4723 ft 252 kts 102°
2026-04-25 16:13 28.40864 77.25763 4507 ft 236 kts 88°
2026-04-25 16:13 28.41217 77.27452 4300 ft 210 kts 52°
2026-04-25 16:13 28.42235 77.28498 4053 ft 193 kts 15°
2026-04-25 16:14 28.43504 77.28604 3831 ft 181 kts 339°
2026-04-25 16:14 28.44614 77.27979 3612 ft 178 kts 324°
2026-04-25 16:14 28.45625 77.27171 3380 ft 178 kts 321°
2026-04-25 16:14 28.46625 77.26336 3155 ft 179 kts 321°
2026-04-25 16:15 28.47618 77.25511 2994 ft 175 kts 321°
2026-04-25 16:15 28.48598 77.24705 2875 ft 173 kts 321°
2026-04-25 16:15 28.49567 77.23905 2778 ft 171 kts 322°
2026-04-25 16:15 28.50504 77.23106 2699 ft 165 kts 321°
2026-04-25 16:16 28.51301 77.22215 2631 ft 162 kts 304°
2026-04-25 16:16 28.51674 77.21002 2628 ft 166 kts 282°
2026-04-25 16:16 28.51865 77.19670 2483 ft 174 kts 284°
2026-04-25 16:16 28.52177 77.18402 2259 ft 159 kts 288°
2026-04-25 16:17 28.52428 77.17239 2072 ft 143 kts 285°
2026-04-25 16:17 28.52644 77.16193 1899 ft 131 kts 287°
2026-04-25 16:17 28.52865 77.15188 1745 ft 132 kts 286°
2026-04-25 16:17 28.53083 77.14168 1583 ft 133 kts 285°
2026-04-25 16:18 28.53306 77.13155 1402 ft 131 kts 284°
2026-04-25 16:18 28.53373 77.12829 1370 ft 130 kts 284°
2026-04-25 16:18 28.53727 77.11136 1099 ft 130 kts 285°
2026-04-25 16:18 28.53944 77.10138 916 ft 131 kts 284°
2026-04-25 16:19 28.54160 77.09143 759 ft 127 kts 283°
2026-04-25 16:19 28.54320 77.08409 752 ft 66 kts 284°
2026-04-25 16:19 28.54419 77.07951 751 ft 48 kts 284°
2026-04-25 16:20 28.54528 77.07539 751 ft 21 kts 302°
2026-04-25 16:20 28.54613 77.07417 750 ft 16 kts 313°
2026-04-25 16:20 28.54739 77.07439 754 ft 16 kts 44°
2026-04-25 16:21 28.54811 77.07502 753 ft 22 kts 34°
2026-04-25 16:21 28.54970 77.07576 752 ft 19 kts
2026-04-25 16:21 28.55064 77.07598 751 ft 7 kts 13°
2026-04-25 16:21 28.55087 77.07604 752 ft 3 kts 13°
2026-04-25 16:22 28.55124 77.07615 754 ft 11 kts 15°
2026-04-25 16:23 28.55226 77.07646 752 ft 18 kts 14°
2026-04-25 16:23 28.55355 77.07683 754 ft 20 kts 14°
2026-04-25 16:23 28.55493 77.07722 751 ft 20 kts 14°
2026-04-25 16:23 28.55563 77.07743 750 ft 0 kts 14°
2026-04-25 16:24 28.55564 77.07743 750 ft 2 kts 14°
2026-04-25 16:24 28.55615 77.07758 750 ft 14 kts 14°
2026-04-25 16:24 28.55731 77.07791 751 ft 18 kts 14°
2026-04-25 16:24 28.55853 77.07826 751 ft 17 kts 14°
2026-04-25 16:25 28.55955 77.07856 750 ft 9 kts 14°
2026-04-25 16:25 28.55994 77.07867 750 ft 8 kts 14°
2026-04-25 16:25 28.56041 77.07904 750 ft 7 kts 69°
2026-04-25 16:25 28.56030 77.07975 752 ft 12 kts 105°
2026-04-25 16:26 28.56002 77.08045 750 ft 7 kts 130°
2026-04-25 16:26 28.55996 77.08088 750 ft 5 kts 73°
2026-04-25 16:26 28.56013 77.08118 749 ft 4 kts 59°
2026-04-25 16:26 28.56023 77.08138 751 ft 1 kts 60°
2026-04-25 16:27 28.56027 77.08145 751 ft 0 kts 59°
2026-04-25 16:27 28.56027 77.08146 751 ft 0 kts 59°